{"data":{"norad_id":44072,"intl_designator":"2019-015A","name":"PRISMA","alt_names":[],"object_type":"PAYLOAD","status":"ACTIVE","operator":null,"country":"IT","launch_date":"2019-03-22","launch_site_code":"FRGUI","launch_vehicle":null,"mission":null,"orbit_class":"UNKNOWN","rcs_meters":null,"size_class":null,"mass_kg":null,"dimensions":null,"purposes":[],"wikipedia_slug":null,"has_3d_model":false,"image_url":null,"decayed_at":null,"tle_current":{"epoch":"2026-05-25T03:26:12.833376Z","epoch_age_seconds":62058,"freshness":"FRESH","line1":"1 44072U 19015A   26145.14320409  .00000044  00000+0  11653-4 0  9991","line2":"2 44072  97.8642 220.2579 0001393  87.6875 272.4498 14.83648672388632","mean_motion":14.83648672,"eccentricity":0.0001393,"inclination_deg":97.8642,"raan_deg":220.2579,"arg_perigee_deg":87.6875,"mean_anomaly_deg":272.4498,"bstar":1.1653e-5,"rev_number":38863,"period_min":97.058018328479,"perigee_km":616.85612146,"apogee_km":618.80519805,"semimajor_km":6995.967659755,"source":"CELESTRAK","updated_at":"2026-05-25T13:37:55.937865Z"}}}